Year,Month,Day,Hour,Minute,Value (Times are PST for temperature in C)
2010,10,11,00,00,8.90
2010,10,11,00,01,8.90
2010,10,11,00,02,8.80
2010,10,11,00,03,8.80
2010,10,11,00,04,8.80
2010,10,11,00,05,8.80
2010,10,11,00,06,8.80
2010,10,11,00,07,8.80
2010,10,11,00,08,8.80
2010,10,11,00,09,8.70
2010,10,11,00,10,8.70
2010,10,11,00,11,8.70
2010,10,11,00,12,8.70
2010,10,11,00,13,8.70
2010,10,11,00,14,8.70
2010,10,11,00,15,8.70
2010,10,11,00,16,8.60
2010,10,11,00,17,8.60
2010,10,11,00,18,8.60
2010,10,11,00,19,8.60
2010,10,11,00,20,8.60
2010,10,11,00,21,8.50
2010,10,11,00,22,8.50
2010,10,11,00,23,8.60
2010,10,11,00,24,8.60
2010,10,11,00,25,8.60
2010,10,11,00,26,8.60
2010,10,11,00,27,8.60
2010,10,11,00,28,8.60
2010,10,11,00,29,8.60
2010,10,11,00,30,8.60
2010,10,11,00,31,8.60
2010,10,11,00,32,8.60
2010,10,11,00,33,8.60
2010,10,11,00,34,8.60
2010,10,11,00,35,8.60
2010,10,11,00,36,8.70
2010,10,11,00,37,8.70
2010,10,11,00,38,8.70
2010,10,11,00,39,8.80
2010,10,11,00,40,8.80
2010,10,11,00,41,8.80
2010,10,11,00,42,8.90
2010,10,11,00,43,8.90
2010,10,11,00,44,8.90
2010,10,11,00,45,8.90
2010,10,11,00,46,8.90
2010,10,11,00,47,8.90
2010,10,11,00,48,8.90
2010,10,11,00,49,8.90
2010,10,11,00,50,8.90
2010,10,11,00,51,8.90
2010,10,11,00,52,8.90
2010,10,11,00,53,8.90
2010,10,11,00,54,8.90
2010,10,11,00,55,8.90
2010,10,11,00,56,9.00
2010,10,11,00,57,9.00
2010,10,11,00,58,9.00
2010,10,11,00,59,9.10
2010,10,11,01,00,9.00
2010,10,11,01,01,9.00
2010,10,11,01,02,9.00
2010,10,11,01,03,9.10
2010,10,11,01,04,9.10
2010,10,11,01,05,9.00
2010,10,11,01,06,9.00
2010,10,11,01,07,9.00
2010,10,11,01,08,9.00
2010,10,11,01,09,9.00
2010,10,11,01,10,9.00
2010,10,11,01,11,9.00
2010,10,11,01,12,9.00
2010,10,11,01,13,9.00
2010,10,11,01,14,9.00
2010,10,11,01,15,9.00
2010,10,11,01,16,8.90
2010,10,11,01,17,8.90
2010,10,11,01,18,8.90
2010,10,11,01,19,8.90
2010,10,11,01,20,8.90
2010,10,11,01,21,8.90
2010,10,11,01,22,8.90
2010,10,11,01,23,8.90
2010,10,11,01,24,8.90
2010,10,11,01,25,8.90
2010,10,11,01,26,8.90
2010,10,11,01,27,8.90
2010,10,11,01,28,8.90
2010,10,11,01,29,8.90
2010,10,11,01,30,8.90
2010,10,11,01,31,8.90
2010,10,11,01,32,9.00
2010,10,11,01,33,9.00
2010,10,11,01,34,9.00
2010,10,11,01,35,9.00
2010,10,11,01,36,9.10
2010,10,11,01,37,9.10
2010,10,11,01,38,9.10
2010,10,11,01,39,9.10
2010,10,11,01,40,9.10
2010,10,11,01,41,9.20
2010,10,11,01,42,9.20
2010,10,11,01,43,9.20
2010,10,11,01,44,9.20
2010,10,11,01,45,9.20
2010,10,11,01,46,9.20
2010,10,11,01,47,9.20
2010,10,11,01,48,9.20
2010,10,11,01,49,9.10
2010,10,11,01,50,9.10
2010,10,11,01,51,9.00
2010,10,11,01,52,8.90
2010,10,11,01,53,8.90
2010,10,11,01,54,8.80
2010,10,11,01,55,8.80
2010,10,11,01,56,8.80
2010,10,11,01,57,8.80
2010,10,11,01,58,8.80
2010,10,11,01,59,8.90
2010,10,11,02,00,8.90
2010,10,11,02,01,8.90
2010,10,11,02,02,8.90
2010,10,11,02,03,8.90
2010,10,11,02,04,8.90
2010,10,11,02,05,8.90
2010,10,11,02,06,8.90
2010,10,11,02,07,8.90
2010,10,11,02,08,8.90
2010,10,11,02,09,8.80
2010,10,11,02,10,8.80
2010,10,11,02,11,8.70
2010,10,11,02,12,8.70
2010,10,11,02,13,8.60
2010,10,11,02,14,8.50
2010,10,11,02,15,8.50
2010,10,11,02,16,8.40
2010,10,11,02,17,8.30
2010,10,11,02,18,8.20
2010,10,11,02,19,8.20
2010,10,11,02,20,8.10
2010,10,11,02,21,8.10
2010,10,11,02,22,8.10
2010,10,11,02,23,8.00
2010,10,11,02,24,8.00
2010,10,11,02,25,8.00
2010,10,11,02,26,7.90
2010,10,11,02,27,7.90
2010,10,11,02,28,7.90
2010,10,11,02,29,7.90
2010,10,11,02,30,7.90
2010,10,11,02,31,7.90
2010,10,11,02,32,7.90
2010,10,11,02,33,7.80
2010,10,11,02,34,7.80
2010,10,11,02,35,7.80
2010,10,11,02,36,7.80
2010,10,11,02,37,7.80
2010,10,11,02,38,7.70
2010,10,11,02,39,7.70
2010,10,11,02,40,7.60
2010,10,11,02,41,7.60
2010,10,11,02,42,7.50
2010,10,11,02,43,7.40
2010,10,11,02,44,7.30
2010,10,11,02,45,7.30
2010,10,11,02,46,7.30
2010,10,11,02,47,7.20
2010,10,11,02,48,7.20
2010,10,11,02,49,7.10
2010,10,11,02,50,7.10
2010,10,11,02,51,7.00
2010,10,11,02,52,7.00
2010,10,11,02,53,6.90
2010,10,11,02,54,6.90
2010,10,11,02,55,6.80
2010,10,11,02,56,6.80
2010,10,11,02,57,6.80
2010,10,11,02,58,6.80
2010,10,11,02,59,6.70
2010,10,11,03,00,6.70
2010,10,11,03,01,6.60
2010,10,11,03,02,6.60
2010,10,11,03,03,6.60
2010,10,11,03,04,6.50
2010,10,11,03,05,6.40
2010,10,11,03,06,6.40
2010,10,11,03,07,6.40
2010,10,11,03,08,6.30
2010,10,11,03,09,6.30
2010,10,11,03,10,6.20
2010,10,11,03,11,6.20
2010,10,11,03,12,6.20
2010,10,11,03,13,6.20
2010,10,11,03,14,6.20
2010,10,11,03,15,6.10
2010,10,11,03,16,6.10
2010,10,11,03,17,6.10
2010,10,11,03,18,6.10
2010,10,11,03,19,6.10
2010,10,11,03,20,6.00
2010,10,11,03,21,6.00
2010,10,11,03,22,6.00
2010,10,11,03,23,6.00
2010,10,11,03,24,6.00
2010,10,11,03,25,6.00
2010,10,11,03,26,6.00
2010,10,11,03,27,6.00
2010,10,11,03,28,6.00
2010,10,11,03,29,6.00
2010,10,11,03,30,6.00
2010,10,11,03,31,6.00
2010,10,11,03,32,6.10
2010,10,11,03,33,6.10
2010,10,11,03,34,6.20
2010,10,11,03,35,6.20
2010,10,11,03,36,6.20
2010,10,11,03,37,6.30
2010,10,11,03,38,6.30
2010,10,11,03,39,6.30
2010,10,11,03,40,6.30
2010,10,11,03,41,6.30
2010,10,11,03,42,6.30
2010,10,11,03,43,6.30
2010,10,11,03,44,6.30
2010,10,11,03,45,6.40
2010,10,11,03,46,6.40
2010,10,11,03,47,6.40
2010,10,11,03,48,6.40
2010,10,11,03,49,6.30
2010,10,11,03,50,6.30
2010,10,11,03,51,6.30
2010,10,11,03,52,6.40
2010,10,11,03,53,6.40
2010,10,11,03,54,6.40
2010,10,11,03,55,6.50
2010,10,11,03,56,6.60
2010,10,11,03,57,6.60
2010,10,11,03,58,6.70
2010,10,11,03,59,6.70
2010,10,11,04,00,6.80
2010,10,11,04,01,6.80
2010,10,11,04,02,6.80
2010,10,11,04,03,6.80
2010,10,11,04,04,6.80
2010,10,11,04,05,6.80
2010,10,11,04,06,6.80
2010,10,11,04,07,6.80
2010,10,11,04,08,6.80
2010,10,11,04,09,6.80
2010,10,11,04,10,6.70
2010,10,11,04,11,6.70
2010,10,11,04,12,6.70
2010,10,11,04,13,6.70
2010,10,11,04,14,6.70
2010,10,11,04,15,6.60
2010,10,11,04,16,6.60
2010,10,11,04,17,6.60
2010,10,11,04,18,6.60
2010,10,11,04,19,6.60
2010,10,11,04,20,6.50
2010,10,11,04,21,6.40
2010,10,11,04,22,6.40
2010,10,11,04,23,6.40
2010,10,11,04,24,6.40
2010,10,11,04,25,6.30
2010,10,11,04,26,6.30
2010,10,11,04,27,6.30
2010,10,11,04,28,6.30
2010,10,11,04,29,6.30
2010,10,11,04,30,6.30
2010,10,11,04,31,6.30
2010,10,11,04,32,6.30
2010,10,11,04,33,6.30
2010,10,11,04,34,6.30
2010,10,11,04,35,6.20
2010,10,11,04,36,6.30
2010,10,11,04,37,6.30
2010,10,11,04,38,6.30
2010,10,11,04,39,6.30
2010,10,11,04,40,6.30
2010,10,11,04,41,6.30
2010,10,11,04,42,6.30
2010,10,11,04,43,6.40
2010,10,11,04,44,6.50
2010,10,11,04,45,6.60
2010,10,11,04,46,6.60
2010,10,11,04,47,6.40
2010,10,11,04,48,6.40
2010,10,11,04,49,6.40
2010,10,11,04,50,6.40
2010,10,11,04,51,6.30
2010,10,11,04,52,6.30
2010,10,11,04,53,6.20
2010,10,11,04,54,6.20
2010,10,11,04,55,6.20
2010,10,11,04,56,6.10
2010,10,11,04,57,6.10
2010,10,11,04,58,6.10
2010,10,11,04,59,6.00
2010,10,11,05,00,6.00
2010,10,11,05,01,6.00
2010,10,11,05,02,6.00
2010,10,11,05,03,6.00
2010,10,11,05,04,6.00
2010,10,11,05,05,6.00
2010,10,11,05,06,6.00
2010,10,11,05,07,6.00
2010,10,11,05,08,6.00
2010,10,11,05,09,6.00
2010,10,11,05,10,6.00
2010,10,11,05,11,6.00
2010,10,11,05,12,6.00
2010,10,11,05,13,6.00
2010,10,11,05,14,6.00
2010,10,11,05,15,6.00
2010,10,11,05,16,6.00
2010,10,11,05,17,6.00
2010,10,11,05,18,6.00
2010,10,11,05,19,6.00
2010,10,11,05,20,6.10
2010,10,11,05,21,6.10
2010,10,11,05,22,6.10
2010,10,11,05,23,6.10
2010,10,11,05,24,6.10
2010,10,11,05,25,6.10
2010,10,11,05,26,6.20
2010,10,11,05,27,6.20
2010,10,11,05,28,6.20
2010,10,11,05,29,6.20
2010,10,11,05,30,6.30
2010,10,11,05,31,6.30
2010,10,11,05,32,6.30
2010,10,11,05,33,6.40
2010,10,11,05,34,6.40
2010,10,11,05,35,6.40
2010,10,11,05,36,6.40
2010,10,11,05,37,6.40
2010,10,11,05,38,6.40
2010,10,11,05,39,6.40
2010,10,11,05,40,6.40
2010,10,11,05,41,6.40
2010,10,11,05,42,6.50
2010,10,11,05,43,6.60
2010,10,11,05,44,6.60
2010,10,11,05,45,6.60
2010,10,11,05,46,6.60
2010,10,11,05,47,6.60
2010,10,11,05,48,6.60
2010,10,11,05,49,6.60
2010,10,11,05,50,6.60
2010,10,11,05,51,6.60
2010,10,11,05,52,6.60
2010,10,11,05,53,6.60
2010,10,11,05,54,6.60
2010,10,11,05,55,6.60
2010,10,11,05,56,6.60
2010,10,11,05,57,6.60
2010,10,11,05,58,6.60
2010,10,11,05,59,6.60
2010,10,11,06,00,6.60
2010,10,11,06,01,6.60
2010,10,11,06,02,6.60
2010,10,11,06,03,6.60
2010,10,11,06,04,6.60
2010,10,11,06,05,6.60
2010,10,11,06,06,6.50
2010,10,11,06,07,6.50
2010,10,11,06,08,6.40
2010,10,11,06,09,6.40
2010,10,11,06,10,6.40
2010,10,11,06,11,6.40
2010,10,11,06,12,6.40
2010,10,11,06,13,6.40
2010,10,11,06,14,6.40
2010,10,11,06,15,6.40
2010,10,11,06,16,6.40
2010,10,11,06,17,6.40
2010,10,11,06,18,6.40
2010,10,11,06,19,6.40
2010,10,11,06,20,6.40
2010,10,11,06,21,6.40
2010,10,11,06,22,6.40
2010,10,11,06,23,6.40
2010,10,11,06,24,6.40
2010,10,11,06,25,6.40
2010,10,11,06,26,6.40
2010,10,11,06,27,6.40
2010,10,11,06,28,6.40
2010,10,11,06,29,6.40
2010,10,11,06,30,6.40
2010,10,11,06,31,6.40
2010,10,11,06,32,6.40
2010,10,11,06,33,6.40
2010,10,11,06,34,6.40
2010,10,11,06,35,6.40
2010,10,11,06,36,6.40
2010,10,11,06,37,6.40
2010,10,11,06,38,6.40
2010,10,11,06,39,6.40
2010,10,11,06,40,6.40
2010,10,11,06,41,6.40
2010,10,11,06,42,6.40
2010,10,11,06,43,6.40
2010,10,11,06,44,6.40
2010,10,11,06,45,6.40
2010,10,11,06,46,6.40
2010,10,11,06,47,6.40
2010,10,11,06,48,6.40
2010,10,11,06,49,6.40
2010,10,11,06,50,6.40
2010,10,11,06,51,6.40
2010,10,11,06,52,6.40
2010,10,11,06,53,6.40
2010,10,11,06,54,6.40
2010,10,11,06,55,6.40
2010,10,11,06,56,6.40
2010,10,11,06,57,6.40
2010,10,11,06,58,6.40
2010,10,11,06,59,6.40
2010,10,11,07,00,6.40
2010,10,11,07,01,6.40
2010,10,11,07,02,6.40
2010,10,11,07,03,6.40
2010,10,11,07,04,6.40
2010,10,11,07,05,6.40
2010,10,11,07,06,6.40
2010,10,11,07,07,6.40
2010,10,11,07,08,6.40
2010,10,11,07,09,6.40
2010,10,11,07,10,6.40
2010,10,11,07,11,6.40
2010,10,11,07,12,6.40
2010,10,11,07,13,6.40
2010,10,11,07,14,6.40
2010,10,11,07,15,6.40
2010,10,11,07,16,6.40
2010,10,11,07,17,6.40
2010,10,11,07,18,6.40
2010,10,11,07,19,6.30
2010,10,11,07,20,6.30
2010,10,11,07,21,6.30
2010,10,11,07,22,6.30
2010,10,11,07,23,6.30
2010,10,11,07,24,6.30
2010,10,11,07,25,6.40
2010,10,11,07,26,6.40
2010,10,11,07,27,6.40
2010,10,11,07,28,6.40
2010,10,11,07,29,6.40
2010,10,11,07,30,6.30
2010,10,11,07,31,6.30
2010,10,11,07,32,6.30
2010,10,11,07,33,6.30
2010,10,11,07,34,6.40
2010,10,11,07,35,6.40
2010,10,11,07,36,6.40
2010,10,11,07,37,6.40
2010,10,11,07,38,6.40
2010,10,11,07,39,6.40
2010,10,11,07,40,6.40
2010,10,11,07,41,6.40
2010,10,11,07,42,6.40
2010,10,11,07,43,6.30
2010,10,11,07,44,6.30
2010,10,11,07,45,6.30
2010,10,11,07,46,6.30
2010,10,11,07,47,6.20
2010,10,11,07,48,6.20
2010,10,11,07,49,6.20
2010,10,11,07,50,6.20
2010,10,11,07,51,6.20
2010,10,11,07,52,6.20
2010,10,11,07,53,6.10
2010,10,11,07,54,6.10
2010,10,11,07,55,6.10
2010,10,11,07,56,6.10
2010,10,11,07,57,6.10
2010,10,11,07,58,6.10
2010,10,11,07,59,6.10
2010,10,11,08,00,6.10
2010,10,11,08,01,6.10
2010,10,11,08,02,6.20
2010,10,11,08,03,6.20
2010,10,11,08,04,6.20
2010,10,11,08,05,6.30
2010,10,11,08,06,6.30
2010,10,11,08,07,6.40
2010,10,11,08,08,6.40
2010,10,11,08,09,6.40
2010,10,11,08,10,6.30
2010,10,11,08,11,6.30
2010,10,11,08,12,6.20
2010,10,11,08,13,6.20
2010,10,11,08,14,6.20
2010,10,11,08,15,6.10
2010,10,11,08,16,6.10
2010,10,11,08,17,6.10
2010,10,11,08,18,6.10
2010,10,11,08,19,6.10
2010,10,11,08,20,6.10
2010,10,11,08,21,6.10
2010,10,11,08,22,6.10
2010,10,11,08,23,6.10
2010,10,11,08,24,6.10
2010,10,11,08,25,6.20
2010,10,11,08,26,6.20
2010,10,11,08,27,6.20
2010,10,11,08,28,6.20
2010,10,11,08,29,6.20
2010,10,11,08,30,6.20
2010,10,11,08,31,6.20
2010,10,11,08,32,6.20
2010,10,11,08,33,6.30
2010,10,11,08,34,6.30
2010,10,11,08,35,6.40
2010,10,11,08,36,6.40
2010,10,11,08,37,6.40
2010,10,11,08,38,6.50
2010,10,11,08,39,6.60
2010,10,11,08,40,6.60
2010,10,11,08,41,6.60
2010,10,11,08,42,6.60
2010,10,11,08,43,6.60
2010,10,11,08,44,6.60
2010,10,11,08,45,6.70
2010,10,11,08,46,6.70
2010,10,11,08,47,6.70
2010,10,11,08,48,6.70
2010,10,11,08,49,6.80
2010,10,11,08,50,6.80
2010,10,11,08,51,7.00
2010,10,11,08,52,7.00
2010,10,11,08,53,7.20
2010,10,11,08,54,7.20
2010,10,11,08,55,7.30
2010,10,11,08,56,7.40
2010,10,11,08,57,7.50
2010,10,11,08,58,7.60
2010,10,11,08,59,7.70
2010,10,11,09,00,7.80
2010,10,11,09,01,7.90
2010,10,11,09,02,8.00
2010,10,11,09,03,8.00
2010,10,11,09,04,8.10
2010,10,11,09,05,8.10
2010,10,11,09,06,8.10
2010,10,11,09,07,8.20
2010,10,11,09,08,8.20
2010,10,11,09,09,8.30
2010,10,11,09,10,8.30
2010,10,11,09,11,8.40
2010,10,11,09,12,8.50
2010,10,11,09,13,8.50
2010,10,11,09,14,8.60
2010,10,11,09,15,8.70
2010,10,11,09,16,8.70
2010,10,11,09,17,8.80
2010,10,11,09,18,8.80
2010,10,11,09,19,8.80
2010,10,11,09,20,8.90
2010,10,11,09,21,8.90
2010,10,11,09,22,9.00
2010,10,11,09,23,9.10
2010,10,11,09,24,9.20
2010,10,11,09,25,9.20
2010,10,11,09,26,9.20
2010,10,11,09,27,9.30
2010,10,11,09,28,9.30
2010,10,11,09,29,9.40
2010,10,11,09,30,9.40
2010,10,11,09,31,9.40
2010,10,11,09,32,9.50
2010,10,11,09,33,9.50
2010,10,11,09,34,9.50
2010,10,11,09,35,9.50
2010,10,11,09,36,9.60
2010,10,11,09,37,9.60
2010,10,11,09,38,9.70
2010,10,11,09,39,9.80
2010,10,11,09,40,9.80
2010,10,11,09,41,9.90
2010,10,11,09,42,9.90
2010,10,11,09,43,10.10
2010,10,11,09,44,10.10
2010,10,11,09,45,10.10
2010,10,11,09,46,10.20
2010,10,11,09,47,10.40
2010,10,11,09,48,10.40
2010,10,11,09,49,10.40
2010,10,11,09,50,10.40
2010,10,11,09,51,10.40
2010,10,11,09,52,10.40
2010,10,11,09,53,10.60
2010,10,11,09,54,10.50
2010,10,11,09,55,10.50
2010,10,11,09,56,10.60
2010,10,11,09,57,10.40
2010,10,11,09,58,10.50
2010,10,11,09,59,10.60
2010,10,11,10,00,10.50
2010,10,11,10,01,10.40
2010,10,11,10,02,10.50
2010,10,11,10,03,10.50
2010,10,11,10,04,10.40
2010,10,11,10,05,10.40
2010,10,11,10,06,10.40
2010,10,11,10,07,10.40
2010,10,11,10,08,10.50
2010,10,11,10,09,10.60
2010,10,11,10,10,10.60
2010,10,11,10,11,10.60
2010,10,11,10,12,10.60
2010,10,11,10,13,10.60
2010,10,11,10,14,10.60
2010,10,11,10,15,10.70
2010,10,11,10,16,10.70
2010,10,11,10,17,10.70
2010,10,11,10,18,10.70
2010,10,11,10,19,10.80
2010,10,11,10,20,10.80
2010,10,11,10,21,10.90
2010,10,11,10,22,10.90
2010,10,11,10,23,11.10
2010,10,11,10,24,11.20
2010,10,11,10,25,11.20
2010,10,11,10,26,11.20
2010,10,11,10,27,11.20
2010,10,11,10,28,11.10
2010,10,11,10,29,11.10
2010,10,11,10,30,11.10
2010,10,11,10,31,11.10
2010,10,11,10,32,11.20
2010,10,11,10,33,11.20
2010,10,11,10,34,11.20
2010,10,11,10,35,11.30
2010,10,11,10,36,11.40
2010,10,11,10,37,11.60
2010,10,11,10,38,11.60
2010,10,11,10,39,11.60
2010,10,11,10,40,11.60
2010,10,11,10,41,11.60
2010,10,11,10,42,11.60
2010,10,11,10,43,11.80
2010,10,11,10,44,11.90
2010,10,11,10,45,12.10
2010,10,11,10,46,12.20
2010,10,11,10,47,12.30
2010,10,11,10,48,12.40
2010,10,11,10,49,12.50
2010,10,11,10,50,12.60
2010,10,11,10,51,12.60
2010,10,11,10,52,12.70
2010,10,11,10,53,12.80
2010,10,11,10,54,12.80
2010,10,11,10,55,12.80
2010,10,11,10,56,12.80
2010,10,11,10,57,12.90
2010,10,11,10,58,13.00
2010,10,11,10,59,13.00
2010,10,11,11,00,13.10
2010,10,11,11,01,13.10
2010,10,11,11,02,13.20
2010,10,11,11,03,13.20
2010,10,11,11,04,13.30
2010,10,11,11,05,13.30
2010,10,11,11,06,13.40
2010,10,11,11,07,13.40
2010,10,11,11,08,13.40
2010,10,11,11,09,13.30
2010,10,11,11,10,13.30
2010,10,11,11,11,13.30
2010,10,11,11,12,13.30
2010,10,11,11,13,13.30
2010,10,11,11,14,13.20
2010,10,11,11,15,13.10
2010,10,11,11,16,13.10
2010,10,11,11,17,13.00
2010,10,11,11,18,12.80
2010,10,11,11,19,12.80
2010,10,11,11,20,12.80
2010,10,11,11,21,12.70
2010,10,11,11,22,12.70
2010,10,11,11,23,12.70
2010,10,11,11,24,12.80
2010,10,11,11,25,12.70
2010,10,11,11,26,12.60
2010,10,11,11,27,12.50
2010,10,11,11,28,12.60
2010,10,11,11,29,12.60
2010,10,11,11,30,12.50
2010,10,11,11,31,12.50
2010,10,11,11,32,12.50
2010,10,11,11,33,12.50
2010,10,11,11,34,12.40
2010,10,11,11,35,12.30
2010,10,11,11,36,12.30
2010,10,11,11,37,12.30
2010,10,11,11,38,12.30
2010,10,11,11,39,12.30
2010,10,11,11,40,12.30
2010,10,11,11,41,12.30
2010,10,11,11,42,12.30
2010,10,11,11,43,12.20
2010,10,11,11,44,12.20
2010,10,11,11,45,12.20
2010,10,11,11,46,12.30
2010,10,11,11,47,12.40
2010,10,11,11,48,12.40
2010,10,11,11,49,12.30
2010,10,11,11,50,12.30
2010,10,11,11,51,12.30
2010,10,11,11,52,12.30
2010,10,11,11,53,12.30
2010,10,11,11,54,12.30
2010,10,11,11,55,12.30
2010,10,11,11,56,12.30
2010,10,11,11,57,12.30
2010,10,11,11,58,12.30
2010,10,11,11,59,12.30
2010,10,11,12,00,12.20
2010,10,11,12,01,12.10
2010,10,11,12,02,12.10
2010,10,11,12,03,12.10
2010,10,11,12,04,12.20
2010,10,11,12,05,12.30
2010,10,11,12,06,12.30
2010,10,11,12,07,12.30
2010,10,11,12,08,12.30
2010,10,11,12,09,12.30
2010,10,11,12,10,12.30
2010,10,11,12,11,12.30
2010,10,11,12,12,12.40
2010,10,11,12,13,12.50
2010,10,11,12,14,12.60
2010,10,11,12,15,12.60
2010,10,11,12,16,12.60
2010,10,11,12,17,12.60
2010,10,11,12,18,12.60
2010,10,11,12,19,12.60
2010,10,11,12,20,12.50
2010,10,11,12,21,12.50
2010,10,11,12,22,12.50
2010,10,11,12,23,12.60
2010,10,11,12,24,12.70
2010,10,11,12,25,12.70
2010,10,11,12,26,12.80
2010,10,11,12,27,12.90
2010,10,11,12,28,12.90
2010,10,11,12,29,12.90
2010,10,11,12,30,12.90
2010,10,11,12,31,12.80
2010,10,11,12,32,12.90
2010,10,11,12,33,12.90
2010,10,11,12,34,13.00
2010,10,11,12,35,12.80
2010,10,11,12,36,12.80
2010,10,11,12,37,12.80
2010,10,11,12,38,12.80
2010,10,11,12,39,12.80
2010,10,11,12,40,12.80
2010,10,11,12,41,12.80
2010,10,11,12,42,12.90
2010,10,11,12,43,12.90
2010,10,11,12,44,13.00
2010,10,11,12,45,13.00
2010,10,11,12,46,13.10
2010,10,11,12,47,13.20
2010,10,11,12,48,13.20
2010,10,11,12,49,13.10
2010,10,11,12,50,13.00
2010,10,11,12,51,12.90
2010,10,11,12,52,12.90
2010,10,11,12,53,12.90
2010,10,11,12,54,13.00
2010,10,11,12,55,13.00
2010,10,11,12,56,13.00
2010,10,11,12,57,13.00
2010,10,11,12,58,13.00
2010,10,11,12,59,13.10
2010,10,11,13,00,13.20
2010,10,11,13,01,13.20
2010,10,11,13,02,13.30
2010,10,11,13,03,13.30
2010,10,11,13,04,13.30
2010,10,11,13,05,13.30
2010,10,11,13,06,13.20
2010,10,11,13,07,13.00
2010,10,11,13,08,12.90
2010,10,11,13,09,12.90
2010,10,11,13,10,13.00
2010,10,11,13,11,13.00
2010,10,11,13,12,13.10
2010,10,11,13,13,13.10
2010,10,11,13,14,13.10
2010,10,11,13,15,13.00
2010,10,11,13,16,12.80
2010,10,11,13,17,12.90
2010,10,11,13,18,12.90
2010,10,11,13,19,12.90
2010,10,11,13,20,13.00
2010,10,11,13,21,13.10
2010,10,11,13,22,13.10
2010,10,11,13,23,13.10
2010,10,11,13,24,13.10
2010,10,11,13,25,13.10
2010,10,11,13,26,13.20
2010,10,11,13,27,13.20
2010,10,11,13,28,13.30
2010,10,11,13,29,13.30
2010,10,11,13,30,13.30
2010,10,11,13,31,13.20
2010,10,11,13,32,13.10
2010,10,11,13,33,13.10
2010,10,11,13,34,13.00
2010,10,11,13,35,12.80
2010,10,11,13,36,12.70
2010,10,11,13,37,12.50
2010,10,11,13,38,12.40
2010,10,11,13,39,12.30
2010,10,11,13,40,12.30
2010,10,11,13,41,12.30
2010,10,11,13,42,12.40
2010,10,11,13,43,12.40
2010,10,11,13,44,12.30
2010,10,11,13,45,12.30
2010,10,11,13,46,12.20
2010,10,11,13,47,12.10
2010,10,11,13,48,12.00
2010,10,11,13,49,11.90
2010,10,11,13,50,11.90
2010,10,11,13,51,11.80
2010,10,11,13,52,11.80
2010,10,11,13,53,11.80
2010,10,11,13,54,11.90
2010,10,11,13,55,11.90
2010,10,11,13,56,12.00
2010,10,11,13,57,12.00
2010,10,11,13,58,12.10
2010,10,11,13,59,12.00
2010,10,11,14,00,12.10
2010,10,11,14,01,12.30
2010,10,11,14,02,12.30
2010,10,11,14,03,12.30
2010,10,11,14,04,12.40
2010,10,11,14,05,12.40
2010,10,11,14,06,12.50
2010,10,11,14,07,12.60
2010,10,11,14,08,12.60
2010,10,11,14,09,12.70
2010,10,11,14,10,12.60
2010,10,11,14,11,12.60
2010,10,11,14,12,12.60
2010,10,11,14,13,12.60
2010,10,11,14,14,12.60
2010,10,11,14,15,12.60
2010,10,11,14,16,12.60
2010,10,11,14,17,12.50
2010,10,11,14,18,12.50
2010,10,11,14,19,12.50
2010,10,11,14,20,12.50
2010,10,11,14,21,12.40
2010,10,11,14,22,12.30
2010,10,11,14,23,12.30
2010,10,11,14,24,12.30
2010,10,11,14,25,12.30
2010,10,11,14,26,12.10
2010,10,11,14,27,12.10
2010,10,11,14,28,12.10
2010,10,11,14,29,12.00
2010,10,11,14,30,12.00
2010,10,11,14,31,12.00
2010,10,11,14,32,12.00
2010,10,11,14,33,11.90
2010,10,11,14,34,11.90
2010,10,11,14,35,12.00
2010,10,11,14,36,12.00
2010,10,11,14,37,11.90
2010,10,11,14,38,11.90
2010,10,11,14,39,11.90
2010,10,11,14,40,11.90
2010,10,11,14,41,11.90
2010,10,11,14,42,11.90
2010,10,11,14,43,12.00
2010,10,11,14,44,12.10
2010,10,11,14,45,12.10
2010,10,11,14,46,12.10
2010,10,11,14,47,12.20
2010,10,11,14,48,12.20
2010,10,11,14,49,12.30
2010,10,11,14,50,12.30
2010,10,11,14,51,12.20
2010,10,11,14,52,12.30
2010,10,11,14,53,12.20
2010,10,11,14,54,12.20
2010,10,11,14,55,12.20
2010,10,11,14,56,12.20
2010,10,11,14,57,12.20
2010,10,11,14,58,12.20
2010,10,11,14,59,12.10
2010,10,11,15,00,12.10
2010,10,11,15,01,12.10
2010,10,11,15,02,12.10
2010,10,11,15,03,12.10
2010,10,11,15,04,12.10
2010,10,11,15,05,12.20
2010,10,11,15,06,12.30
2010,10,11,15,07,12.40
2010,10,11,15,08,12.50
2010,10,11,15,09,12.60
2010,10,11,15,10,12.60
2010,10,11,15,11,12.60
2010,10,11,15,12,12.60
2010,10,11,15,13,12.60
2010,10,11,15,14,12.60
2010,10,11,15,15,12.50
2010,10,11,15,16,12.60
2010,10,11,15,17,12.60
2010,10,11,15,18,12.50
2010,10,11,15,19,12.60
2010,10,11,15,20,12.60
2010,10,11,15,21,12.70
2010,10,11,15,22,12.70
2010,10,11,15,23,12.70
2010,10,11,15,24,12.60
2010,10,11,15,25,12.50
2010,10,11,15,26,12.40
2010,10,11,15,27,12.30
2010,10,11,15,28,12.30
2010,10,11,15,29,12.30
2010,10,11,15,30,12.30
2010,10,11,15,31,12.30
2010,10,11,15,32,12.30
2010,10,11,15,33,12.30
2010,10,11,15,34,12.30
2010,10,11,15,35,12.30
2010,10,11,15,36,12.30
2010,10,11,15,37,12.30
2010,10,11,15,38,12.40
2010,10,11,15,39,12.40
2010,10,11,15,40,12.30
2010,10,11,15,41,12.30
2010,10,11,15,42,12.30
2010,10,11,15,43,12.30
2010,10,11,15,44,12.20
2010,10,11,15,45,12.30
2010,10,11,15,46,12.30
2010,10,11,15,47,12.30
2010,10,11,15,48,12.30
2010,10,11,15,49,12.30
2010,10,11,15,50,12.20
2010,10,11,15,51,12.20
2010,10,11,15,52,12.20
2010,10,11,15,53,12.20
2010,10,11,15,54,12.10
2010,10,11,15,55,12.10
2010,10,11,15,56,12.10
2010,10,11,15,57,12.10
2010,10,11,15,58,12.10
2010,10,11,15,59,12.10
2010,10,11,16,00,12.10
2010,10,11,16,01,12.00
2010,10,11,16,02,12.00
2010,10,11,16,03,12.10
2010,10,11,16,04,12.20
2010,10,11,16,05,12.20
2010,10,11,16,06,12.30
2010,10,11,16,07,12.20
2010,10,11,16,08,12.20
2010,10,11,16,09,12.20
2010,10,11,16,10,12.20
2010,10,11,16,11,12.20
2010,10,11,16,12,12.20
2010,10,11,16,13,12.20
2010,10,11,16,14,12.20
2010,10,11,16,15,12.20
2010,10,11,16,16,12.10
2010,10,11,16,17,12.00
2010,10,11,16,18,12.00
2010,10,11,16,19,12.00
2010,10,11,16,20,12.00
2010,10,11,16,21,12.00
2010,10,11,16,22,12.00
2010,10,11,16,23,12.00
2010,10,11,16,24,12.00
2010,10,11,16,25,12.00
2010,10,11,16,26,12.00
2010,10,11,16,27,12.00
2010,10,11,16,28,11.90
2010,10,11,16,29,11.90
2010,10,11,16,30,11.90
2010,10,11,16,31,11.90
2010,10,11,16,32,11.90
2010,10,11,16,33,11.80
2010,10,11,16,34,11.80
2010,10,11,16,35,11.80
2010,10,11,16,36,11.80
2010,10,11,16,37,11.80
2010,10,11,16,38,11.80
2010,10,11,16,39,11.80
2010,10,11,16,40,11.80
2010,10,11,16,41,11.80
2010,10,11,16,42,11.80
2010,10,11,16,43,11.90
2010,10,11,16,44,11.90
2010,10,11,16,45,11.90
2010,10,11,16,46,12.00
2010,10,11,16,47,12.00
2010,10,11,16,48,12.00
2010,10,11,16,49,12.00
2010,10,11,16,50,12.00
2010,10,11,16,51,12.00
2010,10,11,16,52,12.10
2010,10,11,16,53,12.10
2010,10,11,16,54,12.10
2010,10,11,16,55,12.20
2010,10,11,16,56,12.20
2010,10,11,16,57,12.20
2010,10,11,16,58,12.20
2010,10,11,16,59,12.20
2010,10,11,17,00,12.20
2010,10,11,17,01,12.10
2010,10,11,17,02,12.10
2010,10,11,17,03,12.10
2010,10,11,17,04,12.10
2010,10,11,17,05,12.10
2010,10,11,17,06,12.10
2010,10,11,17,07,12.10
2010,10,11,17,08,12.00
2010,10,11,17,09,12.00
2010,10,11,17,10,11.90
2010,10,11,17,11,11.90
2010,10,11,17,12,11.80
2010,10,11,17,13,11.80
2010,10,11,17,14,11.80
2010,10,11,17,15,11.80
2010,10,11,17,16,11.80
2010,10,11,17,17,11.80
2010,10,11,17,18,11.80
2010,10,11,17,19,11.80
2010,10,11,17,20,11.80
2010,10,11,17,21,11.80
2010,10,11,17,22,11.80
2010,10,11,17,23,11.80
2010,10,11,17,24,11.70
2010,10,11,17,25,11.70
2010,10,11,17,26,11.70
2010,10,11,17,27,11.70
2010,10,11,17,28,11.60
2010,10,11,17,29,11.60
2010,10,11,17,30,11.60
2010,10,11,17,31,11.60
2010,10,11,17,32,11.60
2010,10,11,17,33,11.60
2010,10,11,17,34,11.60
2010,10,11,17,35,11.60
2010,10,11,17,36,11.60
2010,10,11,17,37,11.40
2010,10,11,17,38,11.40
2010,10,11,17,39,11.40
2010,10,11,17,40,11.40
2010,10,11,17,41,11.40
2010,10,11,17,42,11.40
2010,10,11,17,43,11.40
2010,10,11,17,44,11.40